Find Starlink 33658

NORAD ID: 63384 Int'l Des: 2025-063 Owner: SPXS Country: US Constellation: starlink operational
LEOCIRCULAR

当前视图

正在加载3D地球...

About Starlink 33658

Starlink 33658 (NORAD 63384) is a starlink constellation satellite (v2 mini) launched Mar 26, 2025 by SPXS of US. It operates in LEO, CIRCULAR orbit with a mass of 575.00 kg.

即将过境

Passes for default location (London). Set your location on the main map for personalized predictions.

高度历史

Loading altitude history...

两行轨道根数

1 63384U 25063X 26228.82548357 .00022148 00000-0 66461-3 0 9995
2 63384 53.1612 23.9078 0000954 77.2209 282.8900 15.34404468 79349
Epoch: Aug 16, 2026 • Age: 21 hours

当前状态

高度 462.7 km
远地点 / 近地点 N/A
速度 7.64 km/s
星下点 17.81°N, 32.37°W
发射日期 Mar 26, 2025
运行时间 1.3 years
类型 internet

技术详情

分类 Payload
质量 575.00 kg
干质量 530.00 kg
总质量 575.00 kg
长度 0.30 m
直径 4.10 m
跨度 29.00 m
形状 Box + pan
制造商 SPXS
平台类型 Starlink V2MO
阶段状态 In Orbit
所有者/国家 SPXS/US

Most Searched